Regional Weather Roundup
Issued by NWS

Home | Current Version | Previous Version | Graphics & Text | Print | Product List | Glossary On
Versions: 1 2 3 4 5 6 7 8 9 10 11 12 13 14 15 16 17 18 19 20 21 22 23 24 25 26 27 28 29 30 31 32 33 34 35 36 37 38 39 40 41 42 43 44 45 46 47 48 49 50
202
ASUS43 KMKX 211420
RWRWI

WISCONSIN REGIONAL WEATHER ROUNDUP
NATIONAL WEATHER SERVICE MILWAUKEE/SULLIVAN WI
900 AM CDT MON MAY 21 2018

NOTE: "FAIR" INDICATES FEW OR NO CLOUDS BELOW 12,000 FEET WITH NO
SIGNIFICANT WEATHER AND/OR OBSTRUCTIONS TO VISIBILITY.

WIZ001-002-006>008-014>016-023>028-211500-
NORTHWEST WISCONSIN

CITY           SKY/WX    TMP DP  RH WIND       PRES   REMARKS
SUPERIOR ARPT  FAIR      54  37  51 NE3       30.16F
ASHLAND        FAIR      61  37  41 S3        30.17F
HAYWARD        FAIR      57  36  45 SE8       30.16F
SIREN          CLOUDY    61  37  41 E5        30.13F
CUMBERLAND     CLOUDY    55  32  41 E6        30.14S
RICE LAKE      FAIR      61  27  27 E8        30.15F
CHETEK         CLOUDY    56  32  41 E13       30.15S
LADYSMITH      FAIR      60  31  33 E9        30.17S
EAU CLAIRE     CLOUDY    55  36  48 E8        30.13S
MENOMONIE      PTSUNNY   58  41  53 E9        30.13S
NEW RICHMOND   CLOUDY    58  40  50 E9        30.11F
OSCEOLA        CLOUDY    60  39  46 E9        30.14S
$$

WIZ003>005-009-010-017-018-211500-
NORTH CENTRAL WISCONSIN

CITY           SKY/WX    TMP DP  RH WIND       PRES   REMARKS
MANITOWISH WTR FAIR      61  34  36 E5        30.17F
ARBOR VITAE    FAIR      59  32  35 E6        30.18F
WOODRUFF       FAIR      59  32  35 E6        30.18F
RHINELANDER    FAIR      60  31  33 E8        30.19S
EAGLE RIVER    FAIR      60  29  30 E6        30.18S
LAND O LAKES   FAIR      63  27  25 SE5       30.20F
PHILLIPS       FAIR      57  32  38 E5        30.16S
TOMAHAWK       FAIR      57  32  37 CALM      30.18S
MEDFORD        PTSUNNY   53  33  46 E7        30.16R
MERRILL        FAIR      57  38  50 SE7       30.18F HAZE
$$

WIZ029-030-035-036-043>047-211500-
CENTRAL WISCONSIN

CITY           SKY/WX    TMP DP  RH WIND       PRES   REMARKS
WAUSAU         FAIR      55  34  45 E7        30.16S
MOSINEE        PTSUNNY   55  37  50 E9        30.18R
MARSHFIELD     CLOUDY    53  37  54 E10       30.15S
STEVENS POINT  NOT AVBL
WAUPACA        FAIR      55  41  59 E5        30.19R
WAUTOMA        CLOUDY    52  42  69 E6        30.18
WISC RAPIDS    PTSUNNY   54  36  50 E10       30.17S
CAMP DOUGLAS   NOT AVBL
$$

WIZ011>013-019>022-031-037>040-048>050-211500-
NORTHEAST WISCONSIN

CITY           SKY/WX    TMP DP  RH WIND       PRES   REMARKS
ANTIGO         FAIR      57  40  52 SE9       30.19S
SHAWANO        FAIR      59  39  47 E6        30.20R
OCONTO         FAIR      54  34  48 E8        30.20R
STURGEON BAY   FAIR      52  38  58 E8        30.21R
GREEN BAY      FAIR      54  42  64 E6        30.19R
MANITOWOC      NOT AVBL
APPLETON       PTSUNNY   52  37  58 E7        30.17S
CLINTONVILLE   FAIR      56  36  47 E6        30.20R
OSHKOSH        CLOUDY    54  49  83 SE8       30.18R
$$

WIZ032>034-041-042-053>061-211500-
SOUTHWEST WISCONSIN

CITY           SKY/WX    TMP DP  RH WIND       PRES   REMARKS
LA CROSSE      LGT RAIN  57  43  59 E3        30.11S
SPARTA         CLOUDY    54  44  69 E7        30.14R
VIROQUA        CLOUDY    52  45  77 E9        30.11S
BOSCOBEL       LGT RAIN  52  49  89 NE5       30.10F FOG
PRAIRIE DU CHI LGT RAIN  53  50  92 E3        30.09S
PLATTEVILLE    CLOUDY    53  53 100 E13       30.08S
$$

WIZ056-057-062-063-064-067-068-211500-
SOUTH CENTRAL WISCONSIN

CITY           SKY/WX    TMP DP  RH WIND       PRES   REMARKS
REEDSBURG      CLOUDY    52  44  74 E3        30.13F
BARABOO/DELLS  CLOUDY    52  44  75 E7        30.14S
LONE ROCK      LGT RAIN  53  49  86 E8        30.11F
MINERAL POINT  LGT RAIN  54  54 100 E10       30.09F
MADISON        LGT RAIN  51  49  92 E9        30.12F
MIDDLETON      CLOUDY    53  50  90 E6        30.13F
WATERTOWN      RAIN      51  51 100 E8        30.13F
MONROE         RAIN      52  50  93 NE10      30.09F
JANESVILLE     LGT RAIN  54  54 100 E12       30.10F
$$

WIZ051-052-058>065-066-070>072-211500-
SOUTHEAST WISCONSIN

CITY           SKY/WX    TMP DP  RH WIND       PRES   REMARKS
MILWAUKEE      RAIN      49  47  93 NE10      30.16F FOG
WAUKESHA       RAIN      46  46 100 E5        30.18S FOG
MILWAUKEE/TIMM LGT RAIN  48  46  93 E5        30.20R FOG
RACINE         LGT RAIN  51  51 100 E9        30.17F VSB 3/4
BURLINGTON     RAIN      50  49  95 E3        30.15F
KENOSHA        LGT RAIN  51  50  96 E9        30.16F FOG
FOND DU LAC    CLOUDY    53  48  83 SE10      30.18R
SHEBOYGAN      CLOUDY    50  47  89 CALM      30.21R
WEST BEND      RAIN      50  50 100 E8        30.18F
JUNEAU         LGT RAIN  51  50  97 E10       30.17S
$$

LSZ147-162-211500-
LAKE SUPERIOR

STATION/POSITION TIME  TEMP    WIND        PRES    WAVE
                       AIR SEA DIR/SP/G            HT/PER
                 (UTC) (F)     (DEG/KT/KT) (MB)    (FT/S)
W MID LAKE BUOY  1350   40 36  160/  8/  8 1022.5F   0
DEVILS ISLAND    1400   49     250/  2/  3 1022.1F
SAXON HARBOR     1340   49      40/  3/  5 1021.0F
$$

LMZ867-665-643>646-211500-
LAKE MICHIGAN

STATION/POSITION TIME  TEMP    WIND        PRES    WAVE
                       AIR SEA DIR/SP/G            HT/PER
                 (UTC) (F)     (DEG/KT/KT) (MB)    (FT/S)
NORTHPORT PIER   1340   47                 1023.0S
KEWAUNEE LAKESHO 1354   45      30/  4/  6 1022.3R
SHEBOYGAN LAKESH 1400   49        CALM     1023.1R
PORT WASHINGTON  1330   49      60/  3/  4 1023.4R
MILWAUKEE LAKESH 1400   47      40/  7/  8   N/A
KENOSHA   LAKESH 1400   49                 1021.3
$$

TC  - TEMPERATURE IN CELSIUS
VSB - VISIBILITY IN STATUTE MILES
WCI - WIND CHILL INDEX
HX  - HEAT INDEX





USA.gov is the U.S. government's official web portal to all federal, state and local government web resources and services.